This is the latest recevied weather packets stored in our database for station/object K4WCH. If no packets are shown the sender has not sent any weather packets the latest 10 day(s).
| Time | Temp. | Humidity | Pressure | Rain* | Wind** | Luminosity | Snow |
|---|---|---|---|---|---|---|---|
| 1788214954 | 26.11° C | 94% | 1016.7 hPa | 2.29 mm | - | 58 W/m² | - |
| 1788214650 | 26.67° C | 93% | 1016.6 hPa | 1.27 mm | - | 55 W/m² | - |
| 1788214345 | 26.67° C | 92% | 1016.9 hPa | 0 mm | - | 93 W/m² | - |
| 1788214040 | 26.67° C | 92% | 1017 hPa | 0 mm | - | 128 W/m² | - |
| 1788213735 | 26.11° C | 93% | 1017 hPa | 0 mm | - | 136 W/m² | - |
| 1788213430 | 26.11° C | 93% | 1017.1 hPa | 0 mm | - | 140 W/m² | - |
| 1788213126 | 26.11° C | 93% | 1017.1 hPa | 0 mm | - | 145 W/m² | - |
| 1788212822 | 26.11° C | 92% | 1017.1 hPa | 0 mm | - | 143 W/m² | - |
| 1788212519 | 26.11° C | 93% | 1017.2 hPa | 0 mm | - | 143 W/m² | - |
| 1788212215 | 26.11° C | 93% | 1017 hPa | 0 mm | - | 146 W/m² | - |
| 1788211910 | 26.11° C | 92% | 1017 hPa | 0 mm | - | 152 W/m² | - |
| 1788211606 | 26.11° C | 92% | 1017.1 hPa | 0 mm | - | 163 W/m² | - |
| 1788211303 | 25.56° C | 92% | 1016.9 hPa | 0 mm | - | 176 W/m² | - |
| 1788211001 | 25.56° C | 94% | 1017 hPa | 0 mm | - | 185 W/m² | - |
| 1788210702 | 25.56° C | 93% | 1016.9 hPa | 0 mm | - | 188 W/m² | - |
| 1788210396 | 25.56° C | 94% | 1017 hPa | 0.51 mm | - | 182 W/m² | - |
| 1788210093 | 25.56° C | 93% | 1016.9 hPa | 0.51 mm | - | 197 W/m² | - |
| 1788209791 | 25.56° C | 93% | 1016.7 hPa | 0 mm | - | 205 W/m² | - |
| 1788209488 | 25.56° C | 94% | 1016.9 hPa | 0 mm | - | 205 W/m² | - |
| 1788209187 | 25.56° C | 94% | 1016.7 hPa | 0 mm | - | 194 W/m² | - |
| 1788208886 | 25.56° C | 94% | 1016.9 hPa | 0 mm | - | 178 W/m² | - |
| 1788208581 | 25.56° C | 95% | 1016.9 hPa | 0 mm | - | 157 W/m² | - |
| 1788208280 | 25° C | 95% | 1016.9 hPa | 0.51 mm | - | 134 W/m² | - |
| 1788207980 | 25° C | 95% | 1017.1 hPa | 0.51 mm | - | 109 W/m² | - |
| 1788207680 | 25° C | 94% | 1016.9 hPa | 0.51 mm | - | 96 W/m² | - |
* Rain latest hour (hover to see other rain measurements)
** Current wind speed in m/s (hover to see current wind gust speed)